TimeAKST,TemperatureF,Dew PointF,Humidity,Sea Level PressureIn,VisibilityMPH,Wind Direction,Wind SpeedMPH,Gust SpeedMPH,PrecipitationIn,Events,Conditions,WindDirDegrees,DateUTC
12:53 AM,28.9,19.9,69,28.91,10.0,SW,3.5,-,N/A,,Overcast,220,2011-12-12 09:53:00
1:53 AM,27.0,19.0,72,28.91,10.0,WSW,3.5,-,N/A,,Overcast,240,2011-12-12 10:53:00
3:18 AM,24.8,21.2,86,28.93,2.0,SSW,4.6,-,0.00,Snow,Light Snow,210,2011-12-12 12:18:00
3:53 AM,24.1,21.0,88,28.99,1.5,Variable,4.6,-,0.01,Snow,Light Snow,0,2011-12-12 12:53:00
4:22 AM,23.0,21.2,93,28.98,3.0,South,3.5,-,0.01,Snow,Light Snow,190,2011-12-12 13:22:00
4:53 AM,23.0,21.0,92,29.02,4.0,SSW,4.6,-,0.01,Snow,Light Snow,210,2011-12-12 13:53:00
5:14 AM,23.0,21.2,93,29.01,2.0,SW,4.6,-,0.00,Snow,Light Snow,220,2011-12-12 14:14:00
5:28 AM,23.0,21.2,93,29.02,6.0,SW,5.8,-,0.00,Snow,Light Snow,220,2011-12-12 14:28:00
5:53 AM,24.1,21.9,91,29.07,5.0,South,8.1,-,0.00,Snow,Light Snow,190,2011-12-12 14:53:00
6:53 AM,24.1,21.0,88,29.12,5.0,SSW,4.6,-,0.00,Snow,Light Snow,200,2011-12-12 15:53:00
7:53 AM,26.1,23.0,88,29.16,5.0,Variable,5.8,-,0.00,Snow,Light Snow,0,2011-12-12 16:53:00
8:53 AM,28.0,24.1,85,29.20,6.0,SW,9.2,17.3,0.01,Snow,Light Snow,230,2011-12-12 17:53:00
9:53 AM,27.0,24.1,89,29.26,2.0,SW,6.9,17.3,0.01,Snow,Light Snow,230,2011-12-12 18:53:00
10:30 AM,26.6,21.2,80,29.26,4.0,WSW,10.4,23.0,0.00,Snow,Light Snow,240,2011-12-12 19:30:00
10:53 AM,27.0,21.9,81,29.31,6.0,WSW,13.8,19.6,0.00,Snow,Light Snow,250,2011-12-12 19:53:00
11:28 AM,26.6,21.2,80,29.31,2.0,West,11.5,23.0,0.00,Snow,Light Snow,270,2011-12-12 20:28:00
11:46 AM,26.6,19.4,74,29.33,6.0,West,12.7,-,0.00,Snow,Light Snow,260,2011-12-12 20:46:00
11:53 AM,26.1,19.9,78,29.36,7.0,WSW,10.4,28.8,0.00,Snow,Light Snow,250,2011-12-12 20:53:00
12:53 PM,26.1,19.9,78,29.39,4.0,WSW,11.5,23.0,0.00,Snow,Light Snow,250,2011-12-12 21:53:00
1:32 PM,24.8,17.6,74,29.39,7.0,WSW,12.7,19.6,0.00,,Mostly Cloudy,250,2011-12-12 22:32:00
1:53 PM,25.0,19.0,78,29.44,7.0,West,13.8,21.9,0.00,Snow,Light Snow,270,2011-12-12 22:53:00
2:53 PM,25.0,19.0,78,29.47,6.0,WSW,12.7,19.6,0.00,Snow,Light Snow,240,2011-12-12 23:53:00
3:35 PM,26.6,19.4,74,29.47,2.5,West,11.5,-,0.00,Snow,Light Snow,270,2011-12-13 00:35:00
3:50 PM,26.6,21.2,80,29.48,4.0,WSW,10.4,-,0.00,Snow,Light Snow,250,2011-12-13 00:50:00
3:53 PM,26.1,21.0,81,29.51,2.5,West,12.7,-,0.00,Snow,Light Snow,260,2011-12-13 00:53:00
4:45 PM,26.6,21.2,80,29.50,6.0,SW,4.6,-,0.00,Snow,Light Snow,230,2011-12-13 01:45:00
4:53 PM,26.1,21.9,84,29.54,6.0,SW,5.8,-,0.00,Snow,Light Snow,220,2011-12-13 01:53:00
5:53 PM,26.1,21.9,84,29.57,6.0,Variable,6.9,-,0.00,Snow,Light Snow,0,2011-12-13 02:53:00
6:53 PM,26.1,21.0,81,29.60,6.0,WSW,8.1,-,0.00,Snow,Light Snow,240,2011-12-13 03:53:00
7:53 PM,26.1,21.9,84,29.62,6.0,Variable,3.5,-,0.00,Snow,Light Snow,0,2011-12-13 04:53:00
8:29 PM,26.6,21.2,80,29.60,6.0,West,9.2,-,0.00,Snow,Light Snow,260,2011-12-13 05:29:00
8:53 PM,26.1,21.0,81,29.64,6.0,WSW,9.2,-,0.00,Snow,Light Snow,240,2011-12-13 05:53:00
9:53 PM,26.1,21.0,81,29.67,10.0,West,13.8,25.3,0.00,,Mostly Cloudy,260,2011-12-13 06:53:00
10:53 PM,27.0,21.9,81,29.70,7.0,WSW,10.4,-,0.00,Snow,Light Snow,250,2011-12-13 07:53:00
11:53 PM,24.1,19.0,81,29.73,6.0,SSW,4.6,-,0.00,Snow,Light Snow,210,2011-12-13 08:53:00